Weather History for Warrensburg, MO

Change the Weather History Date:

Sunday, October 6, 2013

  Actual Average (KSZL) Record (KSZL)
Temperature  
Mean Temperature 50 °F -  
Max Temperature 60 °F 69 °F 88 °F (2007)
Min Temperature 39 °F 48 °F 33 °F (2000)
Degree Days  
Heating Degree Days 16    
Growing Degree Days 0 (Base 50)    
Moisture  
Dew Point 38 °F    
Average Humidity 65    
Maximum Humidity 87    
Minimum Humidity 42    
Precipitation  
Precipitation 0.00 in - - ()
Sea Level Pressure  
Sea Level Pressure 29.91 in    
Wind  
Wind Speed 9 mph (WSW)    
Max Wind Speed 18 mph    
Max Gust Speed 25 mph    
Visibility 10 miles    
Events      
Averages and records for this station are not official NWS values.
T = Trace of Precipitation, MM = Missing Value Source: NWS Daily Summary

Daily Weather History Graph

Daily Weather History Graph

Search for Another Location

Airport:

Trip Planner

Search our weather history database for the weather conditions in past years. The results will help you decide how hot, cold, wet, or windy it might be!

Date:

Astronomy

Oct. 06, 2013 Rise Set
Actual Time 7:16 AM CDT 6:49 PM CDT
Civil Twilight 6:49 AM CDT 7:16 PM CDT
Nautical Twilight 6:18 AM CDT 7:47 PM CDT
Astronomical Twilight 5:47 AM CDT 8:17 PM CDT
Moon 8:59 AM CDT (10/6) 7:51 PM CDT (10/6)
Length of Visible Light 12h 26m
Length of Day
11h 33m
Waxing Crescent, 3% of the Moon is Illuminated
Oct 6
Waxing Crescent
Oct 11
First Quarter
Oct 18
Full
Oct 26
Last Quarter
Nov 3
New

Hourly Weather History & Observations

Time (CDT) Temp. Windchill Dew Point Humidity Pressure Visibility Wind Dir Wind Speed Gust Speed Precip Events Conditions
12:15 AM 46.4 °F 43.5 °F 37.4 °F 71% 29.92 in 10.0 mi South 5.8 mph - N/A   Clear
12:35 AM 44.6 °F 41.4 °F 37.4 °F 76% 29.91 in 10.0 mi SSW 5.8 mph - N/A   Clear
12:55 AM 44.6 °F 40.7 °F 37.4 °F 76% 29.91 in 10.0 mi SW 6.9 mph - N/A   Clear
1:15 AM 44.6 °F 40.7 °F 37.4 °F 76% 29.91 in 10.0 mi SW 6.9 mph - N/A   Clear
1:35 AM 44.6 °F 40.2 °F 37.4 °F 76% 29.90 in 10.0 mi SSW 8.1 mph - N/A   Clear
1:55 AM 44.6 °F 40.2 °F 37.4 °F 76% 29.90 in 10.0 mi SSW 8.1 mph - N/A   Clear
2:15 AM 42.8 °F 37.5 °F 37.4 °F 81% 29.90 in 10.0 mi SW 9.2 mph - N/A   Clear
2:35 AM 44.6 °F 39.7 °F 35.6 °F 71% 29.89 in 10.0 mi WSW 9.2 mph - N/A   Clear
2:55 AM 44.6 °F 39.7 °F 35.6 °F 71% 29.88 in 10.0 mi SW 9.2 mph - N/A   Clear
3:15 AM 44.6 °F 39.7 °F 35.6 °F 71% 29.88 in 10.0 mi SW 9.2 mph - N/A   Clear
3:35 AM 42.8 °F 38.0 °F 33.8 °F 70% 29.88 in 10.0 mi WSW 8.1 mph - N/A   Clear
3:55 AM 42.8 °F 39.3 °F 33.8 °F 70% 29.88 in 10.0 mi SW 5.8 mph - N/A   Clear
4:15 AM 42.8 °F 39.3 °F 33.8 °F 70% 29.88 in 10.0 mi SSW 5.8 mph - N/A   Clear
4:35 AM 41.0 °F 37.1 °F 33.8 °F 76% 29.87 in 10.0 mi South 5.8 mph - N/A   Clear
4:55 AM 41.0 °F 38.0 °F 33.8 °F 76% 29.87 in 10.0 mi South 4.6 mph - N/A   Clear
5:15 AM 41.0 °F 37.1 °F 33.8 °F 76% 29.88 in 10.0 mi SSW 5.8 mph - N/A   Clear
5:35 AM 39.2 °F 34.2 °F 33.8 °F 81% 29.88 in 10.0 mi SSW 6.9 mph - N/A   Clear
5:55 AM 41.0 °F 37.1 °F 33.8 °F 76% 29.88 in 10.0 mi SSW 5.8 mph - N/A   Clear
6:15 AM 41.0 °F 35.8 °F 33.8 °F 76% 29.88 in 10.0 mi SSW 8.1 mph - N/A   Clear
6:35 AM 41.0 °F 35.2 °F 33.8 °F 76% 29.88 in 10.0 mi SSW 9.2 mph - N/A   Clear
6:55 AM 41.0 °F 35.8 °F 33.8 °F 76% 29.88 in 10.0 mi SSW 8.1 mph - N/A   Scattered Clouds
7:15 AM 41.0 °F 35.2 °F 33.8 °F 76% 29.88 in 10.0 mi SW 9.2 mph - N/A   Scattered Clouds
7:35 AM 41.0 °F 34.7 °F 35.6 °F 81% 29.89 in 10.0 mi SW 10.4 mph - N/A   Mostly Cloudy
7:55 AM 42.8 °F 37.0 °F 35.6 °F 76% 29.89 in 10.0 mi SW 10.4 mph 16.1 mph N/A   Overcast
8:15 AM 42.8 °F 36.6 °F 35.6 °F 76% 29.90 in 10.0 mi SW 11.5 mph 16.1 mph N/A   Overcast
8:35 AM 44.6 °F 39.2 °F 35.6 °F 71% 29.90 in 10.0 mi SW 10.4 mph 16.1 mph N/A   Overcast
8:55 AM 44.6 °F 39.2 °F 37.4 °F 76% 29.90 in 10.0 mi SW 10.4 mph - N/A   Overcast
9:15 AM 48.2 °F - 37.4 °F 66% 29.90 in 10.0 mi WSW 9.2 mph 16.1 mph N/A   Mostly Cloudy
9:35 AM 48.2 °F - 37.4 °F 66% 29.90 in 10.0 mi WSW 13.8 mph - N/A   Overcast
9:55 AM 48.2 °F - 37.4 °F 66% 29.91 in 10.0 mi West 10.4 mph - N/A   Overcast
10:15 AM 50.0 °F - 37.4 °F 62% 29.91 in 10.0 mi WSW 8.1 mph - N/A   Overcast
10:35 AM 50.0 °F - 37.4 °F 62% 29.92 in 10.0 mi WSW 10.4 mph - N/A   Overcast
10:55 AM 50.0 °F - 37.4 °F 62% 29.92 in 10.0 mi West 11.5 mph 18.4 mph N/A   Overcast
11:15 AM 51.8 °F - 37.4 °F 58% 29.92 in 10.0 mi WSW 10.4 mph - N/A   Overcast
11:35 AM 51.8 °F - 37.4 °F 58% 29.93 in 10.0 mi West 10.4 mph 20.7 mph N/A   Overcast
11:55 AM 51.8 °F - 37.4 °F 58% 29.93 in 10.0 mi West 8.1 mph - N/A   Overcast
12:15 PM 53.6 °F - 37.4 °F 54% 29.92 in 10.0 mi West 10.4 mph - N/A   Overcast
1:15 PM 55.4 °F - 37.4 °F 51% 29.92 in 10.0 mi WSW 12.7 mph 16.1 mph N/A   Mostly Cloudy
1:35 PM 55.4 °F - 37.4 °F 51% 29.91 in 10.0 mi WSW 10.4 mph - N/A   Overcast
1:55 PM 55.4 °F - 37.4 °F 51% 29.91 in 10.0 mi West 10.4 mph - N/A   Overcast
2:15 PM 57.2 °F - 37.4 °F 48% 29.90 in 10.0 mi West 13.8 mph 20.7 mph N/A   Overcast
2:35 PM 59.0 °F - 37.4 °F 45% 29.89 in 10.0 mi WSW 12.7 mph 23.0 mph N/A   Scattered Clouds
2:55 PM 59.0 °F - 37.4 °F 45% 29.89 in 10.0 mi WSW 12.7 mph 17.3 mph N/A   Scattered Clouds
3:15 PM 59.0 °F - 37.4 °F 45% 29.90 in 10.0 mi WSW 13.8 mph - N/A   Mostly Cloudy
3:35 PM 60.8 °F - 37.4 °F 42% 29.88 in 10.0 mi WSW 11.5 mph - N/A   Overcast
3:55 PM 59.0 °F - 37.4 °F 45% 29.88 in 10.0 mi WSW 15.0 mph 23.0 mph N/A   Mostly Cloudy
4:15 PM 59.0 °F - 37.4 °F 45% 29.89 in 10.0 mi WSW 13.8 mph 19.6 mph N/A   Scattered Clouds
4:35 PM 59.0 °F - 37.4 °F 45% 29.89 in 10.0 mi West 15.0 mph 20.7 mph N/A   Scattered Clouds
4:55 PM 59.0 °F - 37.4 °F 45% 29.89 in 10.0 mi WSW 12.7 mph 19.6 mph N/A   Mostly Cloudy
5:15 PM 59.0 °F - 39.2 °F 48% 29.89 in 10.0 mi WSW 11.5 mph - N/A   Overcast
5:35 PM 59.0 °F - 39.2 °F 48% 29.89 in 10.0 mi WSW 9.2 mph 18.4 mph N/A   Overcast
5:55 PM 59.0 °F - 41.0 °F 51% 29.90 in 10.0 mi WSW 6.9 mph - N/A   Overcast
6:15 PM 57.2 °F - 41.0 °F 55% 29.90 in 10.0 mi West 10.4 mph - N/A   Overcast
6:35 PM 59.0 °F - 41.0 °F 51% 29.90 in 10.0 mi West 15.0 mph 21.9 mph N/A   Overcast
6:55 PM 57.2 °F - 41.0 °F 55% 29.91 in 10.0 mi West 18.4 mph 24.2 mph N/A   Overcast
7:15 PM 55.4 °F - 42.8 °F 63% 29.92 in 10.0 mi WNW 13.8 mph 21.9 mph N/A   Overcast
7:35 PM 55.4 °F - 42.8 °F 63% 29.92 in 10.0 mi West 12.7 mph 20.7 mph N/A   Overcast
7:55 PM 55.4 °F - 41.0 °F 58% 29.94 in 10.0 mi WNW 18.4 mph 25.3 mph N/A   Overcast
8:15 PM 55.4 °F - 41.0 °F 58% 29.95 in 10.0 mi WNW 13.8 mph 21.9 mph N/A   Overcast
8:35 PM 53.6 °F - 41.0 °F 62% 29.95 in 10.0 mi WNW 9.2 mph 18.4 mph N/A   Overcast
8:55 PM 51.8 °F - 41.0 °F 67% 29.96 in 10.0 mi WNW 12.7 mph 19.6 mph N/A   Scattered Clouds
9:35 PM 50.0 °F - 41.0 °F 71% 29.97 in 10.0 mi WNW 9.2 mph - N/A   Clear
9:55 PM 50.0 °F - 41.0 °F 71% 29.98 in 10.0 mi WNW 6.9 mph - N/A   Clear
10:15 PM 50.0 °F - 41.0 °F 71% 29.99 in 10.0 mi WNW 11.5 mph - N/A   Clear
10:35 PM 50.0 °F - 42.8 °F 76% 29.99 in 10.0 mi WNW 6.9 mph - N/A   Clear
10:55 PM 50.0 °F - 42.8 °F 76% 30.00 in 10.0 mi NW 5.8 mph - N/A   Clear
11:15 PM 50.0 °F - 42.8 °F 76% 30.00 in 10.0 mi WNW 6.9 mph - N/A   Clear
11:35 PM 48.2 °F - 42.8 °F 82% 30.00 in 10.0 mi WNW 4.6 mph - N/A   Clear
11:55 PM 46.4 °F - 42.8 °F 87% 30.00 in 10.0 mi Calm Calm - N/A   Clear